Regional Weather Roundup
Issued by NWS

Home | Current Version | Previous Version | Text Only | Print | Product List | Glossary Off
Versions: 1 2 3 4 5 6 7 8 9 10 11 12 13 14 15 16 17 18 19 20 21 22 23 24 25 26 27 28 29 30 31 32 33 34 35 36 37 38 39 40 41 42 43 44 45 46 47 48 49 50

000
ASUS43 KIND 022159
RWRIN

WEATHER ROUNDUP FOR INDIANA
NATIONAL WEATHER SERVICE INDIANAPOLIS IN
600 PM EDT MON MAY 02 2016

NOTE: "FAIR" INDICATES FEW OR NO CLOUDS BELOW 12,000 FEET WITH NO
SIGNIFICANT WEATHER AND/OR OBSTRUCTIONS TO VISIBILITY.

* - STATION DOES NOT REPORT WEATHER SUCH AS PRECIPITATION OR FOG.

+ - STATION NOT QUALITY CONTROLLED BY THE NATIONAL WEATHER SERVICE.
    USE DATA WITH CAUTION...ESPECIALLY DEWPOINT AND RELATIVE
    HUMIDITY OBSERVATIONS.

INZ001>003-010>013-019-020-022300-
NORTHWEST INDIANA

CITY           SKY/WX    TMP DP  RH WIND       PRES   REMARKS
GARY /AIRPORT/ PTSUNNY   52  45  76 N10       30.03F
RENSSELAER +   CLOUDY    52  46  82 N13       29.99S
VALPARAISO     CLOUDY    50  41  71 N7        30.01F

$$

LMZ046-743>745-022300-
SOUTHERN LAKE MICHIGAN

STATION/POSITION TIME  TEMP    WIND        PRES    WAVE
                       AIR SEA DIR/SP/G            HT
                 (UTC) (F)     (DEG/KT/KT) (MB)    (FT)
BURNS HARBOR     2126   46      50/ 10/ 13 1017.3F
MICHIGAN CITY    2100   44      10/  8/  9   N/A

$$

INZ004-005-014>016-021>024-022300-
NORTH CENTRAL INDIANA

CITY           SKY/WX    TMP DP  RH WIND       PRES   REMARKS
ELKHART        CLOUDY    52  48  87 NE7       30.00F
GOSHEN         CLOUDY    51  46  83 NE7       29.99F
SOUTH BEND     CLOUDY    52  44  74 N9        30.01F

$$

INZ006>009-017-018-025>027-022300-
NORTHEAST INDIANA

CITY           SKY/WX    TMP DP  RH WIND       PRES   REMARKS
ANGOLA *+      CLOUDY    48  39  71 NE5       29.99S
FORT WAYNE     CLOUDY    52  47  83 E8        29.99S

$$

INZ028-029-035-036-043>045-051>053-022300-
WEST CENTRAL INDIANA

CITY           SKY/WX    TMP DP  RH WIND       PRES   REMARKS
CRAWFORDSVL +  CLOUDY    51  51 100 N3        29.98S
GREENCASTLE +  CLOUDY    52  52 100 N3        29.98S FOG
LAFAYETTE      CLOUDY    53  47  79 NE5       29.98S
TERRE HAUTE    CLOUDY    53  49  86 NW6       29.98F

$$

INZ030>032-037>040-046>048-054>057-064-065-022300-
CENTRAL INDIANA

CITY           SKY/WX    TMP DP  RH WIND       PRES   REMARKS
INDIANAPOLIS   CLOUDY    54  51  90 W8        29.94F
-EAGLE CREEK   CLOUDY    56  50  80 W6        29.95F
KOKOMO *+      CLOUDY    54  46  76 NE8       29.97R
SHELBYVILLE    CLOUDY    61  51  70 NW10      29.93F

$$

INZ033-034-041-042-049-050-058-059-022300-
EAST CENTRAL INDIANA

CITY           SKY/WX    TMP DP  RH WIND       PRES   REMARKS
MUNCIE         CLOUDY    55  50  83 NE8       29.95F

$$

INZ060-061-067>069-081>083-085>088-022300-
SOUTHWEST INDIANA

CITY           SKY/WX    TMP DP  RH WIND       PRES   REMARKS
EVANSVILLE     CLOUDY    60  50  69 NW8       29.97S
HUNTINGBURG *+ CLOUDY    61  52  72 N10       29.96S

$$

INZ062-063-066-070>080-084-089>092-022300-
SOUTH CENTRAL AND SOUTHEAST INDIANA

CITY           SKY/WX    TMP DP  RH WIND       PRES   REMARKS
BLOOMINGTON    CLOUDY    57  47  69 NW8       29.95F
MADISON *+     PTSUNNY   61  48  63 W5        29.95R
SEYMOUR +      CLOUDY    63  50  63 W8        29.93F

$$





USA.gov is the U.S. government's official web portal to all federal, state and local government web resources and services.